Marianna, FL

2:41 PM CDT on September 24, 2017 (GMT -0500)
Marianna Municipal

Weather History for KMAI - October, 2013

Change the Weather History Date:

Wednesday, October 2, 2013

  Actual Average Record
Temperature  
Mean Temperature 77 °F 73 °F  
Max Temperature 86 °F 84 °F 93 °F (2006)
Min Temperature 68 °F 62 °F 46 °F (2001)
Degree Days  
Heating Degree Days 0    
Month to date heating degree days 0  
Since 1 July heating degree days 0  
Cooling Degree Days 12    
Month to date cooling degree days 22  
Year to date cooling degree days 2314  
Growing Degree Days 26 (Base 50)    
Moisture  
Dew Point 65 °F    
Average Humidity 71    
Maximum Humidity 90    
Minimum Humidity 51    
Precipitation  
Precipitation 0.00 in 0.09 in 0.45 in (2015)
Month to date precipitation 0.00 0.17  
Year to date precipitation 53.05 42.30  
Sea Level Pressure  
Sea Level Pressure 30.06 in    
Wind  
Wind Speed 3 mph (ENE)    
Max Wind Speed 13 mph    
Max Gust Speed 17 mph    
Visibility 10 miles    
Events      
T = Trace of Precipitation, MM = Missing Value Source: NWS Daily Summary

Daily Weather History Graph

Daily Weather History Graph

Search for Another Location

Airport or City:

Trip Planner

Search our weather history database for the weather conditions in past years. The results will help you decide how hot, cold, wet, or windy it might be!

Date:

Astronomy

Oct. 02, 2013 Rise Set
Actual Time 6:35 AM CDT 6:24 PM CDT
Civil Twilight 6:10 AM CDT 6:48 PM CDT
Nautical Twilight 5:43 AM CDT 7:16 PM CDT
Astronomical Twilight 5:14 AM CDT 7:44 PM CDT
Moon 4:15 AM CDT (10/2) 4:54 PM CDT (10/2)
Length of Visible Light 12h 37m
Length of Day
11h 49m
Waning Crescent, 6% of the Moon is Illuminated
Oct 2
Waning Crescent
Oct 4
New
Oct 11
First Quarter
Oct 18
Full
Oct 26
Last Quarter

Hourly Weather History & Observations

Time (CDT) Temp. Heat Index Dew Point Humidity Pressure Visibility Wind Dir Wind Speed Gust Speed Precip Events Conditions
12:53 AM 73.0 °F - 64.0 °F 73% 30.07 in 10.0 mi East 4.6 mph - N/A   Overcast
1:53 AM 73.0 °F - 63.0 °F 71% 30.07 in 10.0 mi East 4.6 mph - N/A   Overcast
2:53 AM 71.1 °F - 63.0 °F 75% 30.06 in 10.0 mi East 3.5 mph - N/A   Mostly Cloudy
3:53 AM 69.1 °F - 64.0 °F 84% 30.06 in 10.0 mi Calm Calm - N/A   Scattered Clouds
4:53 AM 70.0 °F - 64.0 °F 81% 30.06 in 10.0 mi Calm Calm - N/A   Overcast
5:53 AM 69.1 °F - 64.0 °F 84% 30.06 in 10.0 mi ENE 5.8 mph - N/A   Overcast
6:53 AM 69.1 °F - 64.9 °F 87% 30.08 in 10.0 mi East 6.9 mph - N/A   Overcast
7:53 AM 70.0 °F - 64.9 °F 84% 30.09 in 10.0 mi East 4.6 mph - N/A   Overcast
8:53 AM 75.0 °F - 64.9 °F 71% 30.10 in 10.0 mi East 5.8 mph - N/A   Partly Cloudy
9:53 AM 79.0 °F - 66.0 °F 64% 30.10 in 10.0 mi East 4.6 mph - N/A   Overcast
10:53 AM 81.0 °F 82.7 °F 64.9 °F 58% 30.10 in 10.0 mi ENE 8.1 mph - N/A   Overcast
11:53 AM 84.0 °F 86.3 °F 66.0 °F 55% 30.08 in 10.0 mi ENE 8.1 mph 17.3 mph N/A   Clear
12:53 PM 82.9 °F 84.6 °F 64.9 °F 54% 30.06 in 10.0 mi NE 9.2 mph - N/A   Partly Cloudy
1:53 PM 84.0 °F 85.4 °F 64.0 °F 51% 30.05 in 10.0 mi NE 8.1 mph - N/A   Mostly Cloudy
2:53 PM 82.9 °F 84.4 °F 64.0 °F 53% 30.04 in 10.0 mi ENE 5.8 mph - N/A   Partly Cloudy
3:53 PM 82.0 °F 83.4 °F 64.0 °F 54% 30.03 in 10.0 mi East 3.5 mph - N/A   Clear
4:53 PM 81.0 °F 82.7 °F 64.9 °F 58% 30.04 in 10.0 mi Calm Calm - N/A   Partly Cloudy
5:53 PM 79.0 °F - 66.9 °F 66% 30.04 in 10.0 mi Calm Calm - N/A   Clear
6:53 PM 77.0 °F - 66.9 °F 71% 30.03 in 10.0 mi Calm Calm - N/A   Clear
7:53 PM 73.9 °F - 68.0 °F 82% 30.04 in 10.0 mi Calm Calm - N/A   Clear
8:53 PM 73.0 °F - 68.0 °F 84% 30.06 in 10.0 mi Calm Calm - N/A   Clear
9:53 PM 71.1 °F - 68.0 °F 90% 30.08 in 10.0 mi Calm Calm - N/A   Clear
10:53 PM 70.0 °F - 66.9 °F 90% 30.08 in 10.0 mi Calm Calm - N/A   Clear
11:53 PM 70.0 °F - 66.9 °F 90% 30.07 in 10.0 mi Calm Calm - N/A   Clear